Location: El Diablo
(32.4667°N, 116.4500°W)
Time: 01:29:49
(UTC+00:00)

Cosmos 1939 Rocket - Pass Details

Date: 10 September 2024
Orbit: 510 x 550 km, 97.5° (Epoch: 06 October)

Event Time Altitude Azimuth Distance (km) Brightness Sun altitude
Rises 12:45:14 0° 0° (N) 2,733 6.5 -9.5°
Reaches altitude 10° 12:47:30 10° 352° (N) 1,837 5.5 -9.0°
Maximum altitude 12:51:07 34° 286° (WNW) 917 3.5 -8.3°
Drops below altitude 10° 12:54:42 10° 221° (SW) 1,825 5.0 -7.5°
Sets 12:56:57 0° 212° (SSW) 2,712 6.0 -7.1°
